Location: Newark
(41.2758°N, 92.6808°W)
Time: 21:09:31
(UTC+00:00)

Envisat - Pass Details

Date: 23 September 2019
Orbit: 764 x 766 km, 98.1° (Epoch: 21 October)

Event Time Altitude Azimuth Distance (km) Brightness Sun altitude
Rises 00:47:51 0° 182° (S) 3,218 6.2 -8.3°
Reaches altitude 10° 00:50:14 10° 188° (S) 2,296 5.5 -8.7°
Maximum altitude 00:55:05 46° 261° (W) 1,028 4.2 -9.6°
Drops below altitude 10° 00:59:58 10° 335° (NNW) 2,311 6.0 -10.5°
Sets 01:02:23 0° 341° (NNW) 3,242 6.7 -11.0°
